TimeCST,TemperatureF,Dew PointF,Humidity,Sea Level PressureIn,VisibilityMPH,Wind Direction,Wind SpeedMPH,Gust SpeedMPH,PrecipitationIn,Events,Conditions,WindDirDegrees,DateUTC
12:56 AM,15.1,7.0,70,30.16,-9999.0,West,12.7,-,N/A,,Unknown,280,2013-12-12 06:56:00
1:56 AM,12.9,6.1,74,30.17,-9999.0,WNW,10.4,-,N/A,,Unknown,290,2013-12-12 07:56:00
2:56 AM,14.0,7.0,74,30.32,-9999.0,NW,10.4,-,N/A,,Unknown,310,2013-12-12 08:56:00
3:56 AM,14.0,7.0,74,30.33,-9999.0,NW,8.1,-,N/A,,Unknown,320,2013-12-12 09:56:00
4:56 AM,12.9,6.1,74,30.33,-9999.0,North,6.9,-,N/A,,Unknown,350,2013-12-12 10:56:00
5:56 AM,10.9,6.1,81,30.20,-9999.0,Calm,Calm,-,N/A,,Unknown,0,2013-12-12 11:56:00
6:56 AM,10.0,5.0,80,30.33,-9999.0,NNW,4.6,-,N/A,,Unknown,330,2013-12-12 12:56:00
7:56 AM,8.1,3.0,80,30.33,-9999.0,North,3.5,-,N/A,,Unknown,350,2013-12-12 13:56:00
8:56 AM,6.1,1.9,83,30.34,-9999.0,SSW,3.5,-,N/A,,Unknown,210,2013-12-12 14:56:00
10:56 AM,14.0,8.1,77,30.32,-9999.0,East,5.8,-,N/A,,Unknown,100,2013-12-12 16:56:00
11:56 AM,15.1,8.1,74,30.29,-9999.0,South,6.9,-,N/A,,Unknown,170,2013-12-12 17:56:00
12:56 PM,19.0,10.9,71,30.25,-9999.0,North,-9999.0,-,N/A,,Unknown,0,2013-12-12 18:56:00
1:56 PM,21.0,14.0,74,30.22,-9999.0,South,6.9,-,N/A,,Unknown,180,2013-12-12 19:56:00
2:56 PM,21.0,14.0,74,30.21,-9999.0,ESE,8.1,-,N/A,,Unknown,120,2013-12-12 20:56:00
3:56 PM,19.0,12.9,77,30.21,-9999.0,ESE,5.8,-,N/A,,Unknown,120,2013-12-12 21:56:00
4:56 PM,18.0,12.0,78,30.21,-9999.0,ESE,5.8,-,N/A,,Unknown,120,2013-12-12 22:56:00
5:56 PM,12.9,10.0,88,30.22,-9999.0,Calm,Calm,-,N/A,,Unknown,0,2013-12-12 23:56:00
6:56 PM,10.9,8.1,88,30.23,-9999.0,Calm,Calm,-,N/A,,Unknown,0,2013-12-13 00:56:00
7:56 PM,9.0,5.0,84,30.24,-9999.0,NE,3.5,-,N/A,,Unknown,50,2013-12-13 01:56:00
8:56 PM,10.9,7.0,84,30.24,-9999.0,NE,5.8,-,N/A,,Unknown,50,2013-12-13 02:56:00
9:56 PM,10.0,6.1,84,30.25,-9999.0,NNE,4.6,-,N/A,,Unknown,20,2013-12-13 03:56:00
10:56 PM,9.0,5.0,84,30.25,-9999.0,NNE,6.9,-,N/A,,Unknown,20,2013-12-13 04:56:00
11:56 PM,8.1,3.9,83,30.25,-9999.0,NNE,6.9,-,N/A,,Unknown,20,2013-12-13 05:56:00